Monticello, KY

1:22 PM EST on December 07, 2016 (GMT -0500)
Wayne County

Weather History for KEKQ - February, 2014

Change the Weather History Date:

Monday, February 24, 2014

  Actual Average Record
Temperature  
Mean Temperature 32 °F -  
Max Temperature 43 °F 51 °F 73 °F (1982)
Min Temperature 22 °F 30 °F 7 °F (1968)
Degree Days  
Heating Degree Days 32    
Moisture  
Dew Point 17 °F    
Average Humidity 58    
Maximum Humidity 89    
Minimum Humidity 26    
Precipitation  
Precipitation 0.00 in - - ()
Sea Level Pressure  
Sea Level Pressure 30.29 in    
Wind  
Wind Speed 4 mph (NNE)    
Max Wind Speed 9 mph    
Max Gust Speed -    
Visibility 10 miles    
Events      
Averages and records for this station are not official NWS values.
T = Trace of Precipitation, MM = Missing Value Source: NWS Daily Summary

Daily Weather History Graph

Daily Weather History Graph

Search for Another Location

Airport or City:

Trip Planner

Search our weather history database for the weather conditions in past years. The results will help you decide how hot, cold, wet, or windy it might be!

Date:

Astronomy

Feb. 24, 2014 Rise Set
Actual Time 6:16 AM CST 5:28 PM CST
Civil Twilight 5:50 AM CST 5:55 PM CST
Nautical Twilight 5:20 AM CST 6:25 PM CST
Astronomical Twilight 4:50 AM CST 6:55 PM CST
Moon 2:10 AM CST (2/24) 12:33 PM CST (2/24)
Length of Visible Light 12h 04m
Length of Day
11h 12m
Waning Crescent, 28% of the Moon is Illuminated
Feb 24
Waning Crescent
Mar 1
New
Mar 8
First Quarter
Mar 16
Full
Mar 23
Last Quarter

Hourly Weather History & Observations

Time (CST) Temp. Windchill Dew Point Humidity Pressure Visibility Wind Dir Wind Speed Gust Speed Precip Events Conditions
12:56 AM 30.0 °F 24.1 °F 27.1 °F 89% 30.24 in 10.0 mi North 5.8 mph - N/A   Clear
1:56 AM 29.1 °F 20.6 °F 24.1 °F 81% 30.25 in 10.0 mi NNW 9.2 mph - N/A   Clear
2:56 AM 26.1 °F 17.6 °F 21.0 °F 81% 30.26 in 10.0 mi North 8.1 mph - N/A   Clear
3:56 AM 24.1 °F - 19.0 °F 81% 30.26 in 10.0 mi Calm Calm - N/A   Clear
4:56 AM 23.0 °F - 16.2 °F 75% 30.30 in 10.0 mi Calm Calm - N/A   Clear
5:56 AM 22.1 °F - 14.0 °F 71% 30.32 in 10.0 mi Calm Calm - N/A   Clear
6:56 AM 23.0 °F - 17.1 °F 78% 30.33 in 10.0 mi Calm Calm - N/A   Clear
7:56 AM 30.0 °F 22.4 °F 16.2 °F 56% 30.35 in 10.0 mi North 8.1 mph - N/A   Clear
8:56 AM 32.9 °F 28.5 °F 16.2 °F 50% 30.35 in 10.0 mi Variable 4.6 mph - N/A   Clear
9:56 AM 36.0 °F 31.1 °F 17.1 °F 46% 30.37 in 10.0 mi Variable 5.8 mph - N/A   Clear
10:56 AM 36.9 °F 31.4 °F 12.0 °F 36% 30.36 in 10.0 mi NNE 6.9 mph - N/A   Clear
11:56 AM 39.9 °F 35.8 °F 12.0 °F 32% 30.34 in 10.0 mi Variable 5.8 mph - N/A   Clear
12:56 PM 41.0 °F - 12.0 °F 31% 30.31 in 10.0 mi Calm Calm - N/A   Clear
1:56 PM 41.9 °F 37.5 °F 12.0 °F 30% 30.30 in 10.0 mi Variable 6.9 mph - N/A   Clear
2:56 PM 41.9 °F 39.0 °F 11.1 °F 28% 30.30 in 10.0 mi NNE 4.6 mph - N/A   Clear
3:56 PM 43.0 °F 38.8 °F 10.0 °F 26% 30.26 in 10.0 mi NNE 6.9 mph - N/A   Clear
4:56 PM 41.0 °F - 11.1 °F 29% 30.28 in 10.0 mi Calm Calm - N/A   Clear
5:56 PM 32.0 °F - 19.0 °F 59% 30.28 in 10.0 mi Calm Calm - N/A   Clear
6:56 PM 29.1 °F - 19.0 °F 66% 30.27 in 10.0 mi Calm Calm - N/A   Clear
7:56 PM 30.0 °F - 18.1 °F 61% 30.24 in 10.0 mi Calm Calm - N/A   Clear
8:56 PM 29.1 °F 21.3 °F 16.2 °F 58% 30.24 in 10.0 mi NNE 8.1 mph - N/A   Clear
9:56 PM 31.1 °F - 16.2 °F 54% 30.23 in 10.0 mi Calm Calm - N/A   Clear
10:56 PM 23.0 °F - 18.1 °F 82% 30.23 in 10.0 mi Calm Calm - N/A   Clear
11:56 PM 27.1 °F - 22.1 °F 81% 30.19 in 10.0 mi Calm Calm - N/A   Overcast